Location: ???????
(55.6000°N, 38.1000°E)
Time: 20:23:30
(UTC+00:00)

Daily predictions for brighter satellites

Satellite Brightness Start Highest point End
(mag) Time Altitude Azimuth Time Altitude Azimuth Time Altitude Azimuth
NOSS 3-4 (A) 3.9 16:35:12 10° NW 16:41:52 69° NNE 16:49:15 10° ESE
NOSS 3-4 (C) 3.9 16:35:18 10° NW 16:41:58 69° NNE 16:49:21 10° ESE
STARLINK-1230 4.0 16:40:18 10° WSW 16:44:19 50° SSE 16:48:20 10° E
Cosmos 494 Rocket 4.4 16:39:43 10° SW 16:44:53 73° WNW 16:50:09 10° NNE
USA 186 1.8 16:42:24 10° SSE 16:45:46 81° ENE 16:49:00 10° NNW
COSMO-SKYMED 1 4.4 16:42:25 10° N 16:46:27 38° WNW 16:50:29 10° SW
Cosmos 292 Rocket 4.0 16:42:39 10° NNW 16:47:28 79° WSW 16:52:17 10° SSE
ATLAS CENTAUR R/B 3.4 16:44:31 10° WNW 16:47:58 23° N 16:51:15 10° NE
STARLINK-1243 3.9 16:45:14 10° WSW 16:49:16 51° SSE 16:53:19 10° E
ARGOS Delta rocket 4.4 16:44:05 10° S 16:49:23 76° W 16:54:54 10° NNW
Cosmos 2251 Rocket 4.1 16:45:21 10° S 16:50:14 37° ESE 16:55:10 10° NE
Cosmos 1461 3.7 16:46:11 10° NW 16:50:26 44° NNE 16:54:50 10° ESE
Cosmos 1703 4.0 16:47:50 10° N 16:51:29 34° ENE 16:55:08 10° SE
Cosmos 2315 Rocket 4.1 16:45:57 10° S 16:52:16 76° E 16:58:40 10° NNE
STARLINK-1209 3.1 16:50:23 10° WSW 16:53:16 51° S 16:56:08 10° E
STARLINK-1236 3.9 16:50:15 10° WSW 16:54:17 52° SSE 16:58:20 10° E
Cosmos 2369 Rocket 2.5 16:49:46 10° NW 16:55:29 74° WSW 17:01:08 10° SSE
Cosmos 1455 Rocket 3.8 16:52:19 10° SSW 16:56:37 58° WNW 17:00:59 10° N
ADEOS Rocket 3.6 16:50:20 10° NNE 16:57:06 68° WNW 17:03:10 10° SSW
Cosmos 1953 2.6 16:54:10 10° SSE 16:57:56 43° E 17:01:45 10° NNE
ERBS 2.5 16:55:29 10° W 16:58:52 68° N 17:02:15 10° E
Cosmos 1626 Rocket 4.3 16:55:12 10° NNW 16:59:32 57° W 17:03:48 10° S
Aureole 3 4.1 16:56:08 10° S 17:00:46 60° E 17:06:43 10° NNE
Cosmos 1943 Rocket 2.9 16:56:19 10° NW 17:01:43 54° WSW 17:07:07 10° S
Resurs 01 Rocket 2.1 16:58:11 10° SE 17:02:20 42° ENE 17:06:31 10° N
IRIDIUM 104 4.3 16:57:38 10° N 17:02:53 72° E 17:08:06 10° SSE
MONITOR-E 4.4 17:00:30 10° S 17:03:06 59° WSW 17:05:45 10° NNW
NOSS 2-1 (E) 4.4 17:00:23 10° W 17:03:51 44° NNW 17:08:07 10° NE
STARLINK-1269 3.8 17:00:07 10° WSW 17:04:10 55° S 17:08:14 10° E
Cosmos 1626 4.2 17:01:26 10° NNW 17:04:44 31° W 17:08:01 10° SSW
BREEZE-M DEB (TANK) 3.6 17:01:50 10° SW 17:05:12 18° S 17:06:56 12° SE
Cosmos 2058 Rocket 4.5 17:04:23 10° SE 17:07:40 20° E 17:10:58 10° NE
CZ-2C R/B 4.2 17:03:22 10° NNE 17:07:53 41° E 17:12:18 10° SSE
FREGAT/IRIS 3.5 17:06:16 10° S 17:08:55 44° W 17:11:34 10° NNW
STARLINK-1200 3.8 17:05:04 10° WSW 17:09:08 56° S 17:13:04 11° E
Cosmos 1602 Rocket 4.3 17:04:53 10° NNW 17:09:17 58° W 17:13:37 10° S
Cosmos 2263 4.4 17:05:01 10° NW 17:10:41 75° WSW 17:16:16 10° SSE
Cosmos 1437 2.5 17:08:28 10° NNW 17:11:31 80° ENE 17:14:33 10° SSE
Cosmos 2219 Rocket 4.3 17:07:18 10° W 17:12:03 27° NNW 17:16:48 10° NNE
IRIDIUM 114 4.3 17:06:47 10° N 17:12:04 84° E 17:17:17 10° S
STARLINK-1192 3.8 17:10:02 10° WSW 17:14:06 57° S 17:17:52 12° E
Cosmos 2074 Rocket 4.0 17:08:04 10° N 17:14:23 82° ENE 17:20:42 10° SSE
ATLAS 2AS CENTAUR R/B 3.0 17:06:37 10° NW 17:14:29 88° NE 17:21:21 12° SE
USA 234 4.2 17:12:17 10° ENE 17:17:31 25° SE 17:22:43 10° S
Ariane Rocket 4.1 17:13:01 10° S 17:17:53 46° W 17:22:47 10° NNW
Cosmos 1470 3.3 17:14:58 10° SSW 17:18:49 64° WNW 17:22:45 10° N
STARLINK-1244 3.8 17:15:00 10° WSW 17:19:04 58° S 17:22:38 13° E
IRIDIUM 103 4.4 17:15:59 10° N 17:21:15 85° W 17:26:29 10° S
Cosmos 1908 4.0 17:18:10 10° SSE 17:21:35 31° E 17:25:02 10° NNE
SPOT 5 4.3 17:20:53 12° E 17:23:28 19° NE 17:26:30 10° N
STARLINK-1138 3.7 17:19:58 10° WSW 17:24:03 59° S 17:27:26 14° E
Cosmos 1943 3.6 17:19:08 10° S 17:24:23 41° ESE 17:29:42 10° NE
Aureole 2 Rocket 4.4 17:22:57 10° NW 17:26:02 29° WSW 17:29:03 10° SSW
Meteor 2-17 Rocket 4.5 17:20:16 10° N 17:26:24 67° ENE 17:32:31 10° SSE
Cosmos 1726 Rocket 4.1 17:22:19 10° SSE 17:26:24 38° E 17:30:33 10° NNE
Cosmos 1825 Rocket 3.6 17:22:38 10° NNW 17:27:05 87° W 17:31:29 10° S
Abrixas rocket 3.6 17:26:40 10° SW 17:28:52 19° S 17:29:42 17° SSE
STARLINK-1143 3.7 17:24:52 10° WSW 17:28:57 59° S 17:32:09 16° E
Cosmos 1610 Rocket 4.5 17:23:35 10° N 17:29:50 73° ENE 17:35:59 10° SSE
Spot 2 Rocket 3.9 17:26:00 13° SE 17:30:14 46° ENE 17:35:07 10° N
STARLINK-67 3.1 17:27:54 10° W 17:30:22 40° S 17:31:33 23° SE
ISS -1.1 17:30:27 10° WSW 17:31:33 11° SW 17:32:40 10° SSW
SL-08 RB Rocket 4.3 17:27:40 10° S 17:32:10 59° W 17:36:45 10° NNW
SPOT 3 Rocket 3.8 17:28:34 10° S 17:33:46 72° WSW 17:39:00 10° NNW
STARLINK-1241 3.7 17:29:53 10° WSW 17:33:58 60° S 17:37:00 17° E
SeaSat 1 3.5 17:30:30 10° NNE 17:35:16 49° NW 17:40:00 10° WSW
Cosmos 1758 Rocket 4.1 17:34:29 10° NNW 17:38:49 60° W 17:43:04 10° S
Cosmos 1697 Rocket 4.3 17:34:14 10° NNW 17:38:50 24° NNE 17:43:26 10° E
STARLINK-1239 3.7 17:34:51 10° WSW 17:38:57 61° S 17:41:47 19° E
CZ-4C R/B 3.5 17:33:14 10° WNW 17:39:04 44° N 17:46:03 10° ENE
MetOp-B 4.3 17:34:33 13° SE 17:39:13 60° ENE 17:44:31 10° NNW
MOS 1 Rocket 3.7 17:36:13 10° NNE 17:41:24 56° E 17:46:44 10° S
STARLINK-1240 3.7 17:39:49 10° WSW 17:43:54 61° S 17:46:33 21° ESE
RESURS DK-1 4.4 17:41:59 10° NNW 17:45:04 19° NNE 17:47:55 11° ENE
SJ-6B 4.5 17:41:26 10° SSW 17:45:15 36° W 17:49:07 10° NNW
SL-16 R/B 3.1 17:40:05 10° SW 17:45:38 54° NW 17:51:13 10° NNE
Cosmos 1953 Rocket 3.6 17:41:33 10° NNW 17:46:02 83° WSW 17:50:31 10° S
STARLINK-1216 3.7 17:44:47 10° WSW 17:48:54 62° S 17:51:21 23° ESE
Cosmos 1818 4.0 17:45:37 10° S 17:50:38 40° ESE 17:55:42 10° NE
CZ-2C R/B 2.6 17:46:08 10° NNE 17:51:18 61° ESE 17:56:25 10° S
Terra 3.1 17:49:51 18° E 17:52:07 26° ENE 17:56:03 10° N
SL-24 R/B 4.0 17:48:09 10° NNE 17:52:44 88° WNW 17:56:44 10° SSW
Cosmos 921 Rocket 3.0 17:49:28 10° NNW 17:53:39 65° ENE 17:56:01 24° SE
Cosmos 1656 Rocket 4.2 17:48:07 10° NW 17:53:41 57° WSW 17:58:50 12° SSE
STARLINK-1237 3.7 17:49:46 10° W 17:53:52 62° S 17:56:08 25° ESE
Cosmos 1606 Rocket 3.5 17:50:01 10° S 17:54:26 81° E 17:58:56 10° NNE
Cosmos 614 Rocket 4.3 17:50:41 10° S 17:55:36 43° ESE 18:00:32 10° NE
Cosmos 1295 Rocket 4.5 17:49:37 10° N 17:55:56 82° ENE 18:01:51 12° SSE
Cosmos 407 Rocket 3.9 17:51:37 10° S 17:56:19 37° ESE 18:01:02 10° NE
Cosmos 2341 Rocket 4.1 17:52:18 10° N 17:58:41 68° ENE 18:03:41 17° SSE
STARLINK-1202 3.7 17:54:43 10° W 17:58:49 62° S 18:00:54 27° ESE
SPOT 1/Viking Rocket 3.8 17:55:47 22° SE 17:59:01 53° ENE 18:04:07 10° N
STARLINK-1203 3.7 17:56:09 10° W 18:00:14 61° S 18:02:14 28° ESE
Cosmos 2228 2.9 17:56:29 10° S 18:00:47 86° E 18:05:10 10° NNE
COSMOS 2455 2.8 17:55:09 10° NW 18:01:14 83° NE 18:05:09 23° SE
STARLINK-1233 3.2 17:58:39 10° W 18:01:42 48° S 18:02:28 38° SE
STARLINK-1212 3.2 17:59:06 10° W 18:02:09 48° S 18:02:52 38° SE
STARLINK-1105 3.3 17:59:33 10° W 18:02:37 48° S 18:03:20 38° SE
STARLINK-1206 3.2 18:00:03 10° W 18:03:04 47° S 18:03:44 39° SSE
STARLINK-1247 3.2 18:00:29 10° W 18:03:31 47° S 18:04:10 39° SSE
STARLINK-1227 3.3 18:00:53 10° W 18:03:57 48° S 18:04:37 39° SSE
STARLINK-1218 3.2 18:01:23 10° W 18:04:25 47° S 18:05:03 40° SSE
STARLINK-1226 3.3 18:01:49 10° W 18:04:51 47° S 18:05:28 40° SSE
STARLINK-1254 3.3 18:02:15 10° W 18:05:18 47° S 18:05:55 40° SSE
IGS 5A 3.6 18:03:18 28° SE 18:05:18 56° ENE 18:09:24 10° N
STARLINK-1215 3.3 18:02:45 10° W 18:05:46 47° S 18:06:21 40° SSE
Cosmos 1980 Rocket 3.9 18:01:36 10° NNW 18:06:03 23° NNE 18:10:21 11° ENE
STARLINK-1231 3.3 18:03:12 10° W 18:06:14 47° S 18:06:47 41° SSE
SAR-Lupe-2 3.7 18:02:54 10° NNE 18:06:25 48° E 18:07:48 30° SSE
STARLINK-1232 3.3 18:04:06 10° W 18:07:07 47° S 18:07:39 41° SSE
STARLINK-1217 3.3 18:04:33 10° W 18:07:33 46° S 18:08:05 41° SSE
Cosmos 1603 3.6 18:02:10 10° SSW 18:07:48 88° ESE 18:13:27 10° NE
STARLINK-1208 3.3 18:04:57 10° W 18:08:00 47° S 18:08:31 41° SSE
STARLINK-1229 3.2 18:05:25 10° W 18:08:27 46° S 18:08:55 42° SSE
STARLINK-1246 3.7 18:04:38 10° W 18:08:44 61° S 18:10:27 32° ESE
STARLINK-1271 3.2 18:05:53 10° W 18:08:54 46° S 18:09:23 42° SSE
STARLINK-1270 3.2 18:06:20 10° W 18:09:22 46° S 18:09:48 42° SSE
STARLINK-1154 3.2 18:06:47 10° W 18:09:48 46° S 18:10:14 42° SSE
ERS-1 Rocket 3.3 18:07:59 26° SE 18:10:33 51° ENE 18:15:26 10° N
STARLINK-1197 3.2 18:07:41 10° W 18:10:42 46° S 18:11:06 43° SSE
STARLINK-1189 3.2 18:08:09 10° W 18:11:10 46° S 18:11:33 43° SSE
STARLINK-1198 3.2 18:08:35 10° W 18:11:36 45° S 18:11:58 43° SSE
STARLINK-1188 3.2 18:09:02 10° W 18:12:03 45° SSW 18:12:24 43° SSE
H-2A R/B 4.3 18:08:08 10° SW 18:12:13 23° W 18:16:15 10° NW
STARLINK-1235 3.4 18:09:40 10° W 18:12:41 42° SSW 18:13:02 40° S
STARLINK-1187 3.3 18:09:57 10° W 18:13:00 44° SSW 18:13:22 42° S
Cosmos 2237 Rocket 4.4 18:08:25 10° W 18:13:06 26° NNW 18:17:47 10° NNE
STARLINK-1224 3.7 18:09:39 10° W 18:13:45 61° S 18:15:17 35° ESE
STARLINK-1199 3.3 18:10:58 10° W 18:14:00 45° SSW 18:14:19 43° S
Meteor 1-16 Rocket 4.4 18:08:55 10° SSW 18:14:18 72° WNW 18:19:55 10° NNE
STARLINK-1201 3.3 18:11:11 10° W 18:14:21 47° S 18:14:48 43° SSE
STARLINK-1191 3.3 18:11:26 10° W 18:14:27 45° SSW 18:14:45 43° S
Cosmos 1340 Rocket 2.8 18:12:15 21° S 18:14:49 62° E 18:18:50 10° NNE
STARLINK-1210 3.3 18:11:52 10° W 18:14:55 45° S 18:15:11 43° S
STARLINK-1221 3.3 18:12:19 10° W 18:15:21 45° SSW 18:15:37 43° S
Cosmos 1726 3.4 18:12:01 10° SW 18:15:36 43° WNW 18:19:13 10° N
STARLINK-1219 3.3 18:12:46 10° W 18:15:48 45° SSW 18:16:03 44° S
STARLINK-1222 3.3 18:13:13 10° W 18:16:16 45° SSW 18:16:29 44° S
STARLINK-1211 3.3 18:13:41 10° W 18:16:43 44° SSW 18:16:55 44° S
STARLINK-1214 3.3 18:14:08 10° W 18:17:10 44° SSW 18:17:22 44° S
STARLINK-1245 3.3 18:14:37 10° W 18:17:36 44° SSW 18:17:46 43° S
STARLINK-1234 3.5 18:14:50 10° W 18:17:43 39° SSW 18:17:46 39° SSW
STARLINK-1238 3.3 18:15:01 10° W 18:18:03 44° SSW 18:18:14 44° S
STARLINK-1228 3.5 18:15:34 10° W 18:18:10 36° SSW 18:18:10 36° SSW
STARLINK-1225 3.7 18:14:35 10° W 18:18:41 60° S 18:20:01 38° ESE
STARLINK-1205 3.3 18:15:58 10° W 18:18:58 44° SSW 18:19:05 43° S
Cosmos 220 Rocket 4.3 18:15:03 10° NNW 18:19:16 52° ENE 18:20:46 35° ESE
STARLINK-1204 3.3 18:16:24 10° W 18:19:25 44° SSW 18:19:30 43° S
Cosmos 2218 Rocket 4.1 18:13:25 10° N 18:19:34 62° ENE 18:23:03 27° SE
Cosmos 1892 3.4 18:17:34 10° N 18:21:13 36° ENE 18:21:50 34° E
STARLINK-1230 3.7 18:19:34 10° W 18:23:40 60° S 18:24:49 42° SE
Cosmos 1656 4.3 18:19:14 10° NNW 18:24:47 47° NE 18:27:32 27° ESE
Cosmos 1455 4.5 18:27:15 13° ENE 18:27:15 13° ENE 18:28:04 10° NE
DMSP B5D2-2 4.4 18:21:08 10° NNE 18:26:20 69° WNW 18:31:31 10° SSW
ATLAS CENTAUR R/B 2.8 18:24:20 10° NW 18:27:56 29° NNE 18:29:58 19° ENE
STARLINK-1209 3.9 18:25:30 10° W 18:27:49 32° SW 18:27:49 32° SW
STARLINK-1243 3.7 18:24:31 10° W 18:28:37 59° S 18:29:35 45° SE
Cosmos 967 Rocket 4.5 18:22:12 10° SW 18:28:42 88° SE 18:35:15 10° NE
Cosmos 1461 3.6 18:25:19 10° NW 18:29:41 53° SW 18:31:32 32° S
Cosmos 2251 Rocket 4.5 18:27:12 10° SW 18:32:26 50° NW 18:37:42 10° NNE
NOSS 3-4 (A) 4.4 18:26:12 10° NW 18:32:46 49° SW 18:37:30 22° S
NOSS 3-4 (C) 4.4 18:26:18 10° NW 18:32:52 50° SW 18:37:35 22° S
Cosmos 1076 Rocket 3.5 18:29:02 10° N 18:33:16 61° ENE 18:34:22 44° SE
Cosmos 1408 3.7 18:30:06 10° N 18:33:15 28° ENE 18:33:15 28° ENE
STARLINK-1236 3.7 18:29:33 10° W 18:33:38 58° S 18:34:25 48° SE
Cosmos 1023 Rocket 4.5 18:31:34 21° S 18:34:52 56° ESE 18:39:55 10° NE
ERBS 2.1 18:31:55 10° WNW 18:35:19 90° NNE 18:35:39 71° ESE
In-Cosmos 22 Rocket 4.2 18:29:43 10° NNW 18:35:34 76° ENE 18:38:24 32° SSE
ATLAS 5 CENTAUR R/B 3.6 18:39:26 16° ENE 18:39:26 16° ENE 18:40:40 10° ENE
Cosmos 2151 3.8 18:33:47 10° N 18:37:37 33° ENE 18:38:03 32° E
Cosmos 2181 Rocket 4.0 18:33:54 25° SSE 18:37:37 61° E 18:43:43 10° NNE
Resurs 01 Rocket 3.2 18:35:01 10° SSW 18:38:57 32° W 18:42:55 10° NNW
Cosmos 1825 3.4 18:39:13 10° N 18:42:26 27° ENE 18:42:26 27° ENE
STARLINK-1269 3.7 18:39:27 10° W 18:43:31 56° S 18:43:57 53° SSE
SL-8 Rocket 4.0 18:38:11 10° NNW 18:44:31 84° W 18:48:15 27° S
Cosmos 2058 Rocket 3.4 18:41:08 12° SSW 18:45:13 66° WNW 18:49:45 10° N
NOSS 3-3 (A) 4.1 18:39:38 10° SW 18:45:46 83° NW 18:52:50 10° NE
NOSS 3-3 (C) 4.1 18:39:44 10° SW 18:45:52 84° NW 18:52:56 10° NE
Cosmos 1763 Rocket 3.6 18:41:56 10° NNW 18:47:09 62° ENE 18:48:46 41° ESE
Landsat 7 4.1 18:45:26 30° S 18:47:43 65° WSW 18:52:30 10° NNW
STARLINK-1200 3.7 18:44:25 10° W 18:48:29 55° S 18:48:43 54° S
Okean 3 Rocket 4.2 18:44:29 10° N 18:48:38 38° ENE 18:49:05 37° E
Cosmos 864 Rocket 4.4 18:42:43 10° N 18:49:02 85° ENE 18:52:03 33° SSE
Cosmos 1300 2.5 18:48:51 58° S 18:49:34 86° ESE 18:53:26 10° NNE
STARLINK-1192 3.7 18:49:24 10° W 18:53:27 54° SSW 18:53:30 54° S
Cosmos 2366 rocket 3.9 18:48:39 10° NNW 18:54:50 87° W 18:57:49 33° S
Cosmos-2242 4.3 18:55:46 26° ENE 18:55:46 26° ENE 18:58:39 10° NNE
Cosmos 1174 3.8 18:51:16 10° NW 18:55:02 87° NE 18:55:42 63° SE
STARLINK-1244 3.8 18:54:22 10° W 18:58:17 53° SSW 18:58:17 53° SSW
SL-24 R/B - RUBIN 2 4.3 18:54:17 10° SSW 18:59:55 58° SE 19:06:13 10° NE
CARTOSAT-1 3.6 18:59:46 52° S 19:00:45 77° WSW 19:05:06 10° NNW
Cosmos 2058 2.9 18:56:55 10° NNW 19:01:01 78° W 19:01:42 60° SSW
SPOT 5 2.6 19:00:07 53° S 19:01:06 81° WSW 19:05:27 10° NNW
USA 234 3.2 18:55:00 10° ENE 19:01:28 60° SSE 19:07:56 10° SW
STARLINK-1138 3.9 18:59:21 10° W 19:03:04 50° SSW 19:03:04 50° SSW
ATLAS 2AS CENTAUR R/B 4.0 18:58:09 10° NW 19:04:48 34° WSW 19:08:47 20° SSW
Cosmos 2369 4.1 19:00:15 10° NNW 19:05:48 52° NE 19:07:37 38° E
Cosmos 1190 Rocket 4.0 19:00:56 10° SSW 19:06:15 84° WNW 19:11:35 10° NNE
Cosmos 1766 Rocket 4.0 19:03:20 10° N 19:07:42 48° ENE 19:07:55 47° E
STARLINK-1143 4.1 19:04:16 10° W 19:07:48 47° SW 19:07:48 47° SW
Cosmos 1943 4.0 19:02:49 10° SW 19:08:23 53° NW 19:13:59 10° NNE
Cosmos 540 Rocket 3.9 19:03:33 10° NNW 19:08:37 51° NE 19:09:46 43° E
Cosmos 2344 4.3 19:02:20 10° WNW 19:10:51 69° NNE 19:18:52 22° ESE
Aureole 1 Rocket 4.3 19:03:35 10° SW 19:11:01 73° WNW 19:16:47 10° NNE
STARLINK-1241 4.2 19:09:18 10° W 19:12:39 44° SW 19:12:39 44° SW
Meteor 2-12 Rocket 4.4 19:07:20 10° NNW 19:13:29 81° W 19:15:51 40° S
Cosmos 1140 Rocket 3.5 19:11:31 19° SSW 19:15:21 82° WNW 19:20:34 10° NNE
Cosmos 1570 Rocket 4.1 19:10:30 10° NNW 19:15:54 72° ENE 19:17:01 54° ESE
Iridium 4 Rocket 3.4 19:11:42 10° N 19:16:02 60° W 19:16:55 48° SW
Meteor 2-3 Rocket 4.3 19:11:11 10° N 19:16:43 44° ENE 19:17:55 39° E
STARLINK-1239 4.4 19:14:17 10° W 19:17:26 40° SW 19:17:26 40° SW
Cosmos 841 Rocket 3.6 19:15:19 10° NNW 19:20:37 66° ENE 19:21:34 54° ESE
Cosmos 1812 Rocket 3.5 19:23:25 71° SW 19:23:51 82° WNW 19:28:13 10° N
RESURS DK-1 2.4 19:19:41 10° NNW 19:23:48 68° NE 19:23:48 68° NE
Cosmos 1697 Rocket 2.8 19:18:13 10° NNW 19:23:54 65° NE 19:25:14 50° ESE
Cosmos 468 Rocket 4.1 19:23:20 10° NNW 19:28:30 63° WSW 19:29:25 53° SSW
CZ-4C R/B 3.0 19:22:05 10° NW 19:28:39 66° NNE 19:32:22 32° ESE
Terra 2.0 19:28:43 54° SSW 19:29:33 64° WSW 19:34:19 10° NNW
CZ-2C R/B 4.4 19:26:52 10° N 19:31:20 30° WNW 19:35:45 10° WSW
SL-16 R/B 3.8 19:28:57 10° NNW 19:33:48 28° NNE 19:36:51 18° ENE
Cosmos 1818 4.0 19:28:39 10° WSW 19:34:04 63° NW 19:39:31 10° NE
Cosmos 676 Rocket 4.0 19:31:53 36° SW 19:34:06 81° WNW 19:39:24 10° NNE
Cosmos 2239 Rocket 4.4 19:29:41 10° N 19:35:56 75° ENE 19:37:22 55° SE
Cosmos 1821 Rocket 3.9 19:31:13 10° N 19:37:36 85° E 19:39:15 53° SSE
Mayak -0.3 19:33:56 10° NNE 19:36:48 37° NE 19:36:48 37° NE
Cosmos 407 Rocket 4.4 19:33:18 10° SW 19:38:15 47° NW 19:43:14 10° NNE
Meteor 2-10 Rocket 3.5 19:39:29 62° ESE 19:39:33 62° E 19:44:53 10° NNE
Cosmos 489 Rocket 4.4 19:34:46 10° NNW 19:41:00 78° WSW 19:42:25 55° S
Cosmos 2360 Rocket 4.2 19:38:25 10° NNW 19:42:43 22° NNE 19:47:00 10° ENE
Thor Agena Rocket 4.0 19:40:08 10° NNE 19:44:27 45° ENE 19:44:27 45° ENE
Cosmos 2322 Rocket 3.8 19:40:25 10° NNW 19:45:16 28° NNE 19:48:12 18° ENE
COSMOS 2455 4.2 19:41:38 10° NW 19:46:38 28° WSW 19:48:18 24° SW
ERS-1 Rocket 4.3 19:47:59 26° SW 19:49:35 32° W 19:54:05 10° NNW
Cosmos 1934 Rocket 4.0 19:43:40 10° N 19:50:00 70° ENE 19:51:07 58° SE
Cosmos 2208 Rocket 3.8 19:45:01 10° NNW 19:50:14 80° WSW 19:50:34 75° SSW
Cosmos 1743 Rocket 4.4 19:46:25 10° N 19:50:15 42° NE 19:50:15 42° NE
Cosmos 1980 Rocket 2.4 19:45:36 10° NNW 19:51:11 61° NE 19:52:07 53° E
Spot 4 3.8 19:52:36 68° ENE 19:52:36 68° ENE 19:57:22 10° NNW
Cosmos 1408 Rocket 3.7 19:48:31 10° N 19:52:36 69° NNE 19:52:36 69° NNE
ASTEX 1 3.3 19:54:17 83° S 19:54:29 88° W 19:59:29 10° N
Cosmos 1605 Rocket 4.2 19:50:20 10° N 19:56:21 55° ENE 19:57:15 50° ESE
Cosmos 1892 4.4 19:53:29 10° NNW 19:56:49 27° W 19:56:50 27° W
Cosmos 2360 4.1 19:51:51 10° NNW 19:57:36 79° NE 19:58:17 68° ESE
Cosmos 1741 Rocket 4.0 19:58:47 70° E 19:58:47 70° E 20:03:53 10° NNE
Cosmos 1954 Rocket 4.5 19:57:46 30° WSW 20:00:15 58° NW 20:05:26 10° NNE
Cosmos 1455 3.2 20:02:08 44° N 20:02:08 44° N 20:04:55 10° N
Cosmos 1356 Rocket 3.9 20:03:38 61° N 20:03:38 61° N 20:07:16 10° NNE
ATLAS CENTAUR R/B 2.3 20:03:20 10° NW 20:06:09 43° NW 20:06:09 43° NW
Cosmos 1408 4.3 20:05:05 10° NNW 20:07:36 28° WNW 20:07:36 28° WNW
Cosmos 1656 4.1 20:03:04 10° NW 20:08:31 48° WSW 20:08:58 47° SW
Cosmos 2278 3.5 20:04:14 10° NW 20:09:56 88° ENE 20:10:19 79° SE
Cosmos 2151 4.2 20:11:06 10° NNW 20:14:38 35° W 20:14:38 35° W
Cosmos 1825 3.8 20:14:37 10° NNW 20:17:15 31° WNW 20:17:15 31° WNW
Cosmos 2082 Rocket 3.5 20:20:56 27° ENE 20:20:56 27° ENE 20:24:16 10° NE
ATLAS 5 CENTAUR R/B 1.9 20:20:51 68° NNW 20:20:51 68° NNW 20:25:52 10° NE
Cosmos 1814 Rocket 4.4 20:21:14 10° NW 20:26:21 53° WSW 20:26:21 53° WSW
COSMOS 2406 3.1 20:27:21 72° E 20:27:21 72° E 20:32:45 10° NE
Cosmos 2221 3.7 20:32:07 36° NE 20:32:07 36° NE 20:34:59 10° NNE
Helios 1A 3.9 20:31:52 44° NNE 20:31:52 44° NNE 20:35:02 10° N
ALOS 2 3.2 20:32:12 56° N 20:32:12 56° N 20:35:44 10° NNW
Cosmos-2242 4.0 20:32:35 43° WNW 20:32:35 43° WNW 20:36:32 10° N
Cosmos 1833 Rocket 3.0 20:39:56 52° ENE 20:39:56 52° ENE 20:44:33 10° NE
Cosmos 2219 Rocket 4.3 20:39:42 10° NNW 20:44:03 22° NNE 20:48:24 10° ENE
USA 234 3.2 20:38:11 10° ENE 20:44:46 85° NNW 20:51:20 10° W
SL-16 R/B 4.5 20:41:58 12° E 20:46:03 21° NE 20:50:33 10° N
Cosmos 1850 Rocket 4.4 20:45:58 53° W 20:46:33 56° NW 20:51:41 10° NNE
Sich 1 4.0 20:44:52 10° N 20:48:17 44° NNE 20:48:17 44° NNE
Cosmos 2369 4.4 20:44:39 10° NW 20:49:33 41° W 20:49:33 41° W
Cosmos 1805 Rocket 4.4 20:55:13 10° NNW 20:58:35 51° N 20:58:35 51° N
Meteor 2-3 Rocket 4.4 20:54:33 10° NNW 20:59:58 42° W 21:00:13 42° W
Cosmos 1697 Rocket 3.9 21:02:36 10° NW 21:06:58 31° W 21:06:58 31° W
Terra 4.3 21:07:36 11° W 21:08:17 11° W 21:09:51 10° WNW
Cosmos 1153 Rocket 4.4 21:06:34 10° NNW 21:12:51 76° W 21:13:11 73° SW
Mayak 0.6 21:09:55 10° N 21:13:22 26° WNW 21:13:22 26° WNW
Cosmos 1727 Rocket 3.9 21:14:39 76° ESE 21:14:54 77° E 21:21:15 10° NNE
Cosmos 1459 Rocket 3.9 21:09:53 10° N 21:16:18 77° ENE 21:16:48 72° ESE
CZ-4C R/B 3.0 21:10:37 10° NW 21:17:24 55° SW 21:17:32 55° SW
Cosmos 1802 Rocket 4.0 21:11:13 10° N 21:17:28 67° ENE 21:17:57 64° ESE
Helios 1B rocket 4.3 21:14:22 10° NNE 21:16:27 24° NE 21:16:27 24° NE
SL-16 R/B 2.2 21:13:02 10° NNW 21:18:42 80° NE 21:18:42 80° NE
Cosmos 1633 Rocket 4.0 21:15:48 10° N 21:19:07 46° NNE 21:19:07 46° NNE
Cosmos 1725 Rocket 4.3 21:17:30 10° N 21:23:44 55° ENE 21:24:36 51° E
Cosmos 2344 4.4 21:16:40 10° NW 21:25:44 60° SW 21:28:51 47° S
Cosmos 968 Rocket 4.2 21:27:38 47° ENE 21:27:38 47° ENE 21:31:43 10° NE
Cosmos 2016 Rocket 4.1 21:20:47 10° N 21:27:10 67° ENE 21:27:48 63° ESE
Cosmos 2100 Rocket 3.8 21:21:42 10° NNW 21:27:55 87° W 21:28:10 83° SSW
Cosmos 2360 Rocket 2.8 21:22:29 10° NNW 21:28:01 52° NE 21:29:00 47° E
Cosmos 1607 4.5 21:29:52 44° E 21:29:52 44° E 21:34:49 10° NE
Cosmos 2333 Rocket 3.7 21:24:01 10° NNW 21:29:05 32° NE 21:33:10 14° E
IRAS Rocket 4.2 21:29:04 75° ENE 21:29:08 75° ENE 21:34:47 10° NNW
Cosmos 2322 Rocket 2.1 21:24:27 10° NNW 21:30:00 81° NNE 21:30:00 81° NNE
Cosmos 1980 Rocket 3.3 21:29:56 10° NW 21:33:52 31° W 21:33:52 31° W
Cosmos 1241 Rocket 4.4 21:29:11 10° NW 21:35:28 82° NE 21:36:08 72° ESE
Cosmos 1151 Rocket 4.5 21:40:40 32° NE 21:40:40 32° NE 21:43:28 10° NNE
Cosmos 2173 Rocket 3.8 21:37:38 10° NNW 21:43:44 75° W 21:43:48 74° WSW
NOSS 2-1 (C) 4.4 21:40:03 10° NW 21:43:40 57° WNW 21:43:40 57° WNW
Cosmos 2237 Rocket 4.4 21:40:51 10° NNW 21:45:22 23° NNE 21:49:52 10° ENE
NOSS 2-1 (D) 4.5 21:44:16 10° NW 21:47:48 54° WNW 21:47:48 54° WNW
Resurs 1-4 Rocket 4.0 21:50:39 10° NE 21:54:15 18° E 21:54:54 18° E
SME Rocket 3.8 21:50:05 10° NNE 21:54:12 56° N 21:54:12 56° N
Cosmos 2082 Rocket 2.3 22:02:46 64° WNW 22:03:05 65° NW 22:08:45 10° NNE
Cosmos 1503 Rocket 4.1 22:04:21 70° NE 22:04:21 70° NE 22:09:01 10° NNE
Cosmos 1933 Rocket 4.4 22:00:04 10° N 22:03:29 50° N 22:03:29 50° N
ATLAS 5 CENTAUR R/B 3.3 22:02:16 13° WNW 22:06:10 36° N 22:11:12 10° ENE
CZ-2D R/B 3.8 22:02:13 10° NE 22:06:30 23° E 22:07:21 22° ESE
MOS 1-B Rocket 4.1 22:01:41 10° NNE 22:07:32 71° WNW 22:08:18 64° WSW
Cosmos 2221 4.3 22:08:57 24° NW 22:08:57 24° NW 22:12:13 10° N
Cosmos 1000 Rocket 4.4 22:15:16 70° WSW 22:15:50 75° WNW 22:22:12 10° N
Cosmos 2061 Rocket 4.0 22:13:05 10° NNW 22:19:13 61° W 22:19:24 61° WSW
Cosmos 2228 Rocket 4.2 22:21:12 39° ENE 22:21:12 39° ENE 22:25:01 10° NNE
Cosmos 1680 Rocket 4.1 22:17:17 10° NNW 22:22:24 52° NE 22:23:36 43° E
Cosmos 2237 4.1 22:16:54 10° NW 22:22:20 76° W 22:22:20 76° W
Cosmos 1833 Rocket 3.7 22:21:35 33° WNW 22:23:13 40° NW 22:28:32 10° NNE
Cosmos 1538 Rocket 4.2 22:19:08 10° NNW 22:23:37 61° WNW 22:23:37 61° WNW
Cosmos 1328 Rocket 4.3 22:27:59 51° N 22:27:59 51° N 22:31:18 10° N
USA 234 3.2 22:21:14 10° E 22:27:48 83° N 22:34:22 10° WNW
SL-16 R/B 2.7 22:27:03 49° SE 22:28:45 69° ENE 22:34:56 10° NNW
Cosmos 44 3.8 22:30:07 48° NE 22:30:07 48° NE 22:33:17 10° NE
Cosmos 2219 Rocket 2.7 22:23:42 10° NNW 22:29:15 55° NE 22:31:44 31° ESE
COSMOS 2428 3.3 22:27:26 10° NNW 22:33:04 56° NE 22:35:58 28° ESE
ERS-2 4.2 22:34:02 22° ENE 22:34:25 23° ENE 22:37:19 10° N
Cosmos 2322 3.7 22:30:19 10° NNW 22:36:05 81° NE 22:36:53 66° SE
Cosmos 1933 4.4 22:38:19 44° N 22:38:19 44° N 22:41:10 10° N
Meteor 1-20 Rocket 4.3 22:31:41 10° NNW 22:37:25 66° W 22:37:25 66° W
SJ 16-02 3.6 22:39:00 15° E 22:39:12 15° E 22:41:47 10° ENE
Cosmos 2333 4.1 22:34:40 10° NNW 22:40:20 81° NE 22:41:05 67° SE
SL-19 R/B 4.2 22:44:26 74° SSW 22:44:47 77° WSW 22:50:28 10° NNW
PSLV R/B 4.3 22:45:40 10° N 22:49:24 49° NW 22:49:24 49° NW
Helios 1B rocket 3.8 22:49:40 10° N 22:52:46 33° NW 22:52:46 33° NW
H-2A R/B 4.1 22:52:55 14° ESE 22:55:34 24° ENE 22:58:56 10° N
Cosmos 1733 Rocket 4.3 22:51:29 10° N 22:55:36 37° ENE 22:56:38 32° E
Cosmos 724 4.2 22:58:46 67° SSE 22:59:12 70° SE 23:05:00 10° NE
Cosmos 1315 Rocket 4.5 23:00:15 27° NW 23:00:15 27° NW 23:03:10 10° N
Cosmos 1812 4.4 23:00:45 26° E 23:00:45 26° E 23:03:59 10° NNE
SL-16 R/B 3.8 22:57:49 10° NW 23:00:33 21° WNW 23:00:33 21° WNW
SL-16 R/B 4.2 22:58:32 10° NNW 23:03:22 28° NNE 23:08:12 10° E
Cosmos 2112 Rocket 3.9 23:00:14 10° NNW 23:05:29 85° ENE 23:06:11 68° SE
MOZ.5/SAFIR/RUBIN 5/SL-8 4.0 23:07:19 58° WNW 23:07:19 58° WNW 23:11:30 10° NNW
Cosmos 2233 Rocket 4.1 23:00:43 10° NNW 23:06:50 53° W 23:07:22 52° WSW
Cosmos 44 Rocket 3.7 23:09:14 48° ESE 23:09:14 48° ESE 23:13:26 10° NE
SL-27 R/B 4.4 23:10:43 23° NNW 23:10:43 23° NNW 23:12:36 10° N
Cosmos 2360 Rocket 3.0 23:06:43 10° NW 23:10:45 36° W 23:10:45 36° W
Cosmos 1777 Rocket 3.8 23:12:52 75° SW 23:13:18 85° WNW 23:18:37 10° NNE
Cosmos 2322 Rocket 3.8 23:09:12 10° NW 23:11:48 20° WNW 23:11:48 20° WNW
Cosmos 2333 Rocket 2.0 23:08:18 10° NW 23:13:59 82° WSW 23:15:07 58° SSE
Cosmos 1607 4.2 23:13:57 40° W 23:16:04 61° NNW 23:22:19 10° NE
Cosmos 1833 4.4 23:15:16 53° SSE 23:16:13 61° ESE 23:21:54 10° NE
Cosmos 1151 Rocket 4.3 23:17:30 30° NW 23:17:30 30° NW 23:20:58 10° N
Cosmos 405 Rocket 3.7 23:14:00 10° N 23:17:32 41° ENE 23:17:44 40° ENE
Meteor 1-11 Rocket 4.0 23:12:49 10° NNW 23:18:46 73° ENE 23:21:20 36° SSE
Cosmos 2123 Rocket 4.5 23:22:26 40° W 23:23:38 44° WNW 23:29:33 10° N
Cosmos 1869 Rocket 4.2 23:20:48 10° NNW 23:24:18 45° WNW 23:24:18 45° WNW
Cosmos 1782 3.3 23:26:21 52° NNW 23:26:21 52° NNW 23:29:38 10° N
Cosmos 1606 4.5 23:29:30 23° NW 23:29:30 23° NW 23:32:02 10° N
Cosmos 1464 Rocket 3.8 23:22:52 10° NNW 23:29:02 81° W 23:30:54 48° S
Cosmos 839 Rocket 4.1 23:28:07 50° SW 23:29:58 90° NNW 23:37:13 10° NE
Cosmos 2237 Rocket 2.7 23:24:57 10° NNW 23:30:35 60° NE 23:36:12 10° SE
ADEOS II 3.1 23:26:07 10° NNE 23:31:03 39° E 23:33:20 26° SE
CSL-04 DEB 4.4 23:31:44 78° NNE 23:31:44 78° NNE 23:35:30 10° NNW
Cosmos 158 Rocket 3.9 23:26:26 10° NNW 23:31:45 72° WSW 23:32:20 65° SSW
USA 267 4.4 23:27:06 10° ENE 23:32:36 28° SE 23:34:30 24° SSE
AQUA 4.0 23:29:22 10° NNE 23:34:08 67° ESE 23:35:00 55° SSE
Resurs 1-4 Rocket 2.0 23:29:32 10° NNE 23:34:53 88° ESE 23:36:00 58° SSW
NPP 3.6 23:29:56 10° NNE 23:35:22 80° ESE 23:36:42 52° S
Genesis I 3.5 23:35:56 62° E 23:35:56 62° E 23:39:24 10° NE
Cosmos 1898 Rocket 4.4 23:35:47 32° SE 23:37:22 40° ESE 23:42:14 10° NE
Meteor 1-5 Rocket 4.2 23:32:47 10° NNW 23:38:34 69° W 23:39:46 53° SSW
CZ-4B R/B 3.2 23:33:49 10° NNE 23:38:41 88° ESE 23:39:26 65° SSW
Meteor 2-11 Rocket 4.5 23:34:27 10° NNW 23:40:29 60° W 23:41:53 48° SW
Cosmos 1500 4.0 23:36:51 10° NNW 23:39:30 41° NW 23:39:30 41° NW
Meteor 2-6 Rocket 4.0 23:43:36 53° SSW 23:44:57 89° W 23:50:24 10° NNE
CZ-4B R/B 4.4 23:44:12 10° E 23:46:32 17° ENE 23:48:54 10° NNE
CZ-2D R/B 2.1 23:41:41 10° NNE 23:47:11 79° WNW 23:48:41 50° SSW
Cosmos 1707 Rocket 3.5 23:46:43 68° S 23:47:17 88° E 23:51:47 10° NNE
Cosmos 2082 Rocket 4.0 23:44:34 13° WNW 23:48:16 24° NNW 23:52:53 10° NNE
SL-19 R/B 4.2 23:45:18 10° NNE 23:48:21 71° ENE 23:48:21 71° ENE
BREEZE-M DEB (TANK) 4.0 23:50:51 36° SSE 23:50:51 36° SSE 23:53:17 10° ESE
Cosmos 1862 Rocket 4.2 23:50:21 36° SE 23:51:43 51° E 23:56:03 10° NNE
ATLAS 5 CENTAUR R/B 3.3 23:47:01 10° NW 23:51:51 42° NNE 23:57:28 10° E
IRS-1D 3.6 23:47:55 10° NNE 23:52:56 70° ESE 23:54:38 41° S
Cosmos 990 Rocket 4.4 23:52:25 37° SSE 23:54:09 54° ESE 23:59:10 10° NE
